[[{"header":{"parameterUnit":"m.s-1","parameterCategory":1,"la1":30.2991,"la2":30.254,"lo1":-89.0895,"lo2":-89.0444,"dy":0.0017,"dx":0.0017,"nx":28,"ny":28,"refTime":"2023-04-03T21:00:00:Z","depth":0,"parameterNumber":2,"parameterNumberName":"U-component_of_WINDS"},"data":[0,0,0,0,0,0,0,0,0,0,0,0,0,0,0,0,0,0,0,0,0,0,0,0,0,0,0,0,0,0,0,0,0,0,0,0,0,0,0,0,0,0,0,0,0,0,0,0,0,0,0,0,0,0,0,0,0,0,-1.4437,-1.4437,0,-1.442,-1.442,-1.442,-1.4399,-1.4399,-1.4399,-1.4399,-1.4382,-1.4382,-1.4382,0,0,0,0,0,0,0,0,0,0,0,0,0,-1.4452,-1.4452,-1.4437,-1.4437,-1.4436,-1.442,-1.442,-1.442,-1.44,-1.4399,-1.4399,-1.4398,-1.4382,-1.4382,-1.4381,0,0,0,0,0,0,0,0,0,0,0,0,0,-1.4441,-1.4451,-1.4437,-1.4424,-1.4423,-1.442,-1.442,-1.442,-1.44,-1.4399,-1.4399,-1.4398,-1.4382,-1.4382,-1.4381,-1.439,0,0,-1.4381,-1.4381,0,0,0,0,0,0,0,0,-1.4442,-1.4441,-1.4426,-1.4425,-1.4424,-1.4411,-1.4419,-1.441,-1.44,-1.4409,-1.4399,-1.4398,-1.4392,-1.4391,-1.4389,-1.4389,-1.4388,-1.4381,-1.4381,-1.4381,-1.438,0,0,0,0,0,0,0,-1.4443,-1.4441,-1.443,-1.4426,-1.4425,-1.442,-1.4418,-1.4417,-1.4403,-1.4408,-1.4406,-1.4405,-1.4391,-1.4389,-1.4388,-1.4388,-1.4381,-1.4381,-1.438,-1.438,-1.4393,-1.4393,0,0,0,0,0,0,-1.4445,-1.4442,-1.4431,-1.443,-1.4432,-1.442,-1.4418,-1.4416,-1.4403,-1.4401,-1.4405,-1.4404,-1.439,-1.4389,-1.4388,-1.4395,-1.4381,-1.438,-1.438,-1.4392,-1.4393,-1.4393,0,0,0,0,0,0,-1.4445,-1.4444,-1.4431,-1.4435,-1.4433,-1.442,-1.4418,-1.4416,-1.4414,-1.4401,-1.4398,-1.4405,-1.4389,-1.4388,-1.4389,-1.4395,-1.438,-1.438,-1.4392,-1.4392,-1.4393,-1.4412,0,0,0,0,0,0,-1.4446,-1.4445,-1.4447,-1.4436,-1.4433,-1.4433,-1.4419,-1.4416,-1.4413,-1.4411,-1.4401,-1.4398,-1.4389,-1.4389,-1.4389,-1.4394,-1.438,-1.4391,-1.4392,-1.4393,-1.441,-1.4413,-1.4415,0,0,0,0,0,-1.4447,-1.4453,-1.4448,-1.4446,-1.4436,-1.4433,-1.4432,-1.4421,-1.4414,-1.4416,-1.4408,-1.4399,-1.4394,-1.439,-1.4389,-1.4394,-1.4391,-1.4392,-1.4393,-1.4409,-1.4412,-1.4415,0,0,0,0,0,0,-1.4466,-1.4452,-1.4445,-1.4448,-1.4442,-1.443,-1.4433,-1.4424,-1.442,-1.4419,-1.4405,-1.4403,-1.4405,-1.44,-1.4395,-1.4401,-1.4391,-1.4392,-1.4404,-1.4407,-1.4409,-1.441,-1.438,0,0,0,0,0,-1.4471,-1.447,-1.4457,-1.4461,-1.4458,-1.4446,-1.4444,-1.4436,-1.443,-1.4427,-1.4419,-1.4413,-1.441,-1.4408,-1.4405,-1.441,-1.4407,-1.4413,-1.4416,-1.4417,-1.4418,-1.442,-1.4422,-1.4397,-1.4397,-1.4397,0,0,-1.4481,-1.4473,-1.4472,-1.4465,-1.4459,-1.4458,-1.4444,-1.4444,-1.4442,-1.4427,-1.4427,-1.4421,-1.4413,-1.4416,-1.4417,-1.4412,-1.4424,-1.4419,-1.442,-1.442,-1.4421,-1.4423,-1.4425,-1.4398,-1.4397,-1.4397,0,0,-1.4497,-1.4491,-1.4494,-1.4488,-1.448,-1.4472,-1.4472,-1.4462,-1.4457,-1.4457,-1.4445,-1.4444,-1.4439,-1.4434,-1.4431,-1.4446,-1.4437,-1.4445,-1.4457,-1.4458,-1.446,-1.4462,-1.4466,-1.4468,-1.4446,-1.4446,-1.4446,0,-1.451,-1.4508,-1.4496,-1.4496,-1.4493,-1.4479,-1.4481,-1.4476,-1.4467,-1.4465,-1.446,-1.4454,-1.4448,-1.4449,-1.4452,-1.4451,-1.445,-1.4446,-1.4461,-1.4463,-1.4464,-1.4468,-1.447,-1.4447,-1.4447,-1.4447,-1.4447,0,-1.4524,-1.4522,-1.4525,-1.4516,-1.4514,-1.4515,-1.4503,-1.4502,-1.4495,-1.4487,-1.4487,-1.4479,-1.4474,-1.4474,-1.4467,-1.4474,-1.4471,-1.4464,-1.4453,-1.4467,-1.4471,-1.4473,-1.4449,-1.4448,-1.4448,-1.4448,0,0,-1.4551,-1.4536,-1.4538,-1.4533,-1.4523,-1.4522,-1.4522,-1.4517,-1.4516,-1.451,-1.451,-1.4507,-1.45,-1.4496,-1.4488,-1.449,-1.4501,-1.4482,-1.4481,-1.4485,-1.4508,-1.4513,-1.4515,-1.4495,-1.4496,-1.4496,-1.4508,0,-1.4565,-1.4565,-1.4555,-1.4557,-1.4555,-1.4542,-1.4542,-1.4536,-1.453,-1.4527,-1.452,-1.4517,-1.4509,-1.4506,-1.4507,-1.4499,-1.4505,-1.4499,-1.4494,-1.4494,-1.4496,-1.4517,-1.4522,-1.4533,-1.4509,-1.451,-1.451,0,-1.4581,-1.4576,-1.4579,-1.4568,-1.4567,-1.4567,-1.4561,-1.4559,-1.4552,-1.4547,-1.4543,-1.4534,-1.4534,-1.4525,-1.4524,-1.452,-1.4518,-1.4514,-1.4514,-1.4512,-1.4502,-1.4514,-1.4537,-1.4538,-1.4512,-1.4512,-1.4512,0,-1.46,-1.4594,-1.4594,-1.4591,-1.4579,-1.458,-1.4575,-1.4567,-1.4564,-1.456,-1.4558,-1.4553,-1.455,-1.4547,-1.4537,-1.4531,-1.4537,-1.4527,-1.4532,-1.4532,-1.4533,-1.4533,-1.4554,-1.4534,-1.4533,-1.4533,-1.4533,0,-1.4616,-1.4618,-1.4603,-1.4603,-1.4604,-1.4592,-1.4594,-1.4588,-1.4581,-1.458,-1.4569,-1.4568,-1.4555,-1.4553,-1.4545,-1.4545,-1.4544,-1.454,-1.4538,-1.454,-1.4541,-1.4538,-1.4536,-1.4534,-1.4534,-1.4534,-1.4534,0,-1.4637,-1.4627,-1.4626,-1.4615,-1.4612,-1.4613,-1.4604,-1.4603,-1.4596,-1.4594,-1.4593,-1.4582,-1.4579,-1.4569,-1.4563,-1.4558,-1.456,-1.4556,-1.4562,-1.456,-1.4565,-1.4565,-1.4585,-1.4587,-1.4566,-1.4566,-1.4566,0,-1.4647,-1.4648,-1.4636,-1.4635,-1.463,-1.4627,-1.4624,-1.4613,-1.4611,-1.4603,-1.4603,-1.4599,-1.4595,-1.459,-1.4581,-1.4577,-1.4572,-1.458,-1.4571,-1.4574,-1.4571,-1.4571,-1.457,-1.4581,-1.4581,-1.4582,-1.4582,0,-1.4666,-1.4661,-1.4657,-1.4652,-1.4648,-1.4644,-1.4638,-1.4637,-1.4625,-1.4623,-1.4619,-1.4616,-1.461,-1.4605,-1.4599,-1.4594,-1.4586,-1.4585,-1.4585,-1.4587,-1.459,-1.4588,-1.4566,-1.4584,-1.4584,-1.4584,-1.4583,-1.4583,-1.4681,-1.4681,-1.4673,-1.4669,-1.4663,-1.4659,-1.4657,-1.465,-1.4647,-1.4641,-1.4634,-1.4631,-1.4624,-1.4615,-1.4611,-1.4608,-1.4603,-1.4605,-1.4605,-1.4605,-1.4606,-1.4592,-1.4607,-1.4607,-1.4607,-1.4607,-1.4607,0,-1.4698,-1.4692,-1.4689,-1.4681,-1.4678,-1.4671,-1.4665,-1.4663,-1.466,-1.4654,-1.465,-1.4645,-1.4641,-1.4632,-1.4627,-1.4627,-1.4623,-1.4626,-1.4625,-1.4624,-1.4611,-1.461,-1.4629,-1.4629,-1.4629,-1.4629,-1.4629,-1.4629,-1.4707,-1.4706,-1.47,-1.4697,-1.4691,-1.4687,-1.4684,-1.468,-1.4675,-1.467,-1.4666,-1.4661,-1.4653,-1.4648,-1.4643,-1.4641,-1.4639,-1.4643,-1.4639,-1.4627,-1.4625,-1.4623,-1.4622,-1.4643,-1.4643,-1.4653,-1.4653,-1.4653]},{"header":{"parameterUnit":"m.s-1","parameterCategory":1,"la1":30.2991,"la2":30.254,"lo1":-89.0895,"lo2":-89.0444,"dy":0.0017,"dx":0.0017,"nx":28,"ny":28,"refTime":"2023-04-03T21:00:00:Z","depth":0,"parameterNumber":3,"parameterNumberName":"V-component_of_WINDS"},"data":[0,0,0,0,0,0,0,0,0,0,0,0,0,0,0,0,0,0,0,0,0,0,0,0,0,0,0,0,0,0,0,0,0,0,0,0,0,0,0,0,0,0,0,0,0,0,0,0,0,0,0,0,0,0,0,0,0,0,3.5388,3.5389,0,3.5477,3.5478,3.5479,3.5471,3.547,3.5468,3.5467,3.5557,3.556,3.5564,0,0,0,0,0,0,0,0,0,0,0,0,0,3.5211,3.5215,3.5388,3.5389,3.539,3.5477,3.5478,3.5479,3.5471,3.547,3.5468,3.5466,3.5556,3.556,3.5564,0,0,0,0,0,0,0,0,0,0,0,0,0,3.5293,3.5216,3.5388,3.5397,3.5398,3.5477,3.5478,3.548,3.5472,3.547,3.5467,3.5466,3.5554,3.556,3.5565,3.564,0,0,3.5582,3.5584,0,0,0,0,0,0,0,0,3.5288,3.5299,3.5394,3.5396,3.5398,3.5461,3.5449,3.5533,3.5472,3.5444,3.5467,3.5465,3.5526,3.5534,3.5555,3.5644,3.5648,3.5582,3.5586,3.5588,3.559,0,0,0,0,0,0,0,3.5283,3.5296,3.5423,3.5396,3.5398,3.5396,3.5406,3.5465,3.5495,3.5446,3.5446,3.5456,3.5527,3.555,3.5557,3.5649,3.5582,3.5587,3.559,3.5593,3.5807,3.581,0,0,0,0,0,0,3.5275,3.5291,3.542,3.5426,3.5337,3.5401,3.5412,3.5443,3.5495,3.5501,3.5458,3.5456,3.5542,3.5551,3.556,3.5655,3.5588,3.5593,3.5596,3.5805,3.5808,3.5811,0,0,0,0,0,0,3.5271,3.5287,3.5417,3.5358,3.5375,3.5406,3.5441,3.5446,3.5468,3.5504,3.5509,3.5476,3.554,3.5553,3.5621,3.5657,3.5596,3.5601,3.5802,3.5806,3.5809,3.5841,0,0,0,0,0,0,3.5266,3.5285,3.5314,3.5359,3.5378,3.5476,3.5444,3.5449,3.5478,3.5476,3.5522,3.5528,3.554,3.5613,3.5627,3.5664,3.5605,3.5799,3.5804,3.5808,3.5837,3.5845,3.5853,0,0,0,0,0,3.526,3.5318,3.5315,3.5331,3.5414,3.5478,3.5489,3.5502,3.5481,3.551,3.5534,3.5526,3.5651,3.562,3.5635,3.5675,3.5797,3.5802,3.5808,3.5834,3.5844,3.5852,0,0,0,0,0,0,3.5275,3.5324,3.5321,3.5396,3.5433,3.5476,3.5514,3.5512,3.5555,3.5551,3.5565,3.5575,3.5645,3.5666,3.5631,3.5752,3.5721,3.573,3.5736,3.5746,3.5753,3.5748,3.5609,0,0,0,0,0,3.5287,3.5335,3.5375,3.5437,3.5456,3.5482,3.551,3.5517,3.5555,3.5571,3.5599,3.5637,3.5685,3.5716,3.5761,3.5839,3.5851,3.5874,3.5882,3.5888,3.5896,3.5942,3.5954,3.5828,3.5828,3.5828,0,0,3.5312,3.5345,3.5374,3.5441,3.547,3.552,3.5495,3.5547,3.5585,3.5579,3.5646,3.5668,3.5711,3.5786,3.582,3.5805,3.5933,3.5895,3.59,3.5905,3.5949,3.5961,3.5972,3.5832,3.5831,3.5831,0,0,3.5385,3.5413,3.547,3.5501,3.5546,3.5563,3.5577,3.5621,3.5636,3.5704,3.5701,3.5746,3.5827,3.5859,3.5886,3.5973,3.5969,3.5987,3.6029,3.6074,3.6084,3.6093,3.6127,3.6139,3.5995,3.5995,3.5995,0,3.5411,3.5486,3.5499,3.5554,3.5584,3.5582,3.564,3.5669,3.5727,3.5748,3.5731,3.5836,3.5864,3.5948,3.5969,3.599,3.6008,3.5983,3.6081,3.609,3.6099,3.6132,3.6144,3.5997,3.5997,3.5997,3.5996,0,3.5517,3.5569,3.5609,3.5668,3.5702,3.5758,3.578,3.5814,3.5818,3.5838,3.5908,3.5943,3.5997,3.6017,3.602,3.6102,3.6092,3.6078,3.6048,3.6113,3.6144,3.6156,3.6,3.5999,3.5999,3.5998,0,0,3.5602,3.5668,3.5683,3.571,3.5761,3.5802,3.5859,3.5913,3.5943,3.5983,3.6032,3.6102,3.6091,3.6121,3.6129,3.6168,3.6239,3.6149,3.6151,3.6168,3.6334,3.6347,3.6361,3.6236,3.6238,3.624,3.6332,0,3.5682,3.5783,3.5798,3.5887,3.5938,3.5937,3.5986,3.6024,3.6043,3.6089,3.611,3.6161,3.614,3.6159,3.6197,3.6222,3.6273,3.6215,3.6283,3.6286,3.6276,3.6377,3.639,3.6475,3.6344,3.6346,3.6347,0,3.5788,3.5834,3.5929,3.5977,3.5998,3.6043,3.6096,3.6138,3.6181,3.6193,3.6228,3.6232,3.6292,3.6258,3.6342,3.6302,3.6331,3.6347,3.6351,3.636,3.6322,3.6391,3.6502,3.6516,3.6366,3.6364,3.6363,0,3.5845,3.5929,3.5999,3.6022,3.6078,3.611,3.6134,3.6175,3.6208,3.6253,3.6275,3.6326,3.6355,3.6395,3.6413,3.6386,3.6497,3.6463,3.651,3.651,3.6535,3.6534,3.6655,3.6549,3.6548,3.6548,3.6548,0,3.5934,3.5994,3.6025,3.6068,3.6135,3.6151,3.6217,3.624,3.6277,3.6325,3.6326,3.6371,3.639,3.6439,3.6452,3.6522,3.6534,3.6546,3.655,3.6548,3.6547,3.6569,3.6565,3.6552,3.6551,3.655,3.655,0,3.6009,3.6032,3.6108,3.6156,3.6169,3.6217,3.6258,3.63,3.6319,3.6381,3.6396,3.6427,3.6484,3.6505,3.6574,3.6584,3.6665,3.6662,3.6651,3.6653,3.67,3.6696,3.6841,3.6862,3.6739,3.674,3.6741,0,3.6066,3.6112,3.6166,3.6199,3.6225,3.6277,3.6311,3.6329,3.6365,3.6418,3.6454,3.6512,3.6559,3.665,3.6679,3.6733,3.6733,3.678,3.6741,3.6739,3.6738,3.6736,3.6742,3.6788,3.6789,3.679,3.6791,0,3.6166,3.6176,3.6226,3.628,3.6322,3.6365,3.6407,3.6433,3.6458,3.6498,3.6557,3.6594,3.6666,3.6723,3.6779,3.6804,3.6803,3.6803,3.6817,3.6817,3.6811,3.6818,3.6675,3.68,3.6799,3.6798,3.6798,3.6798,3.6236,3.6279,3.6324,3.638,3.6414,3.6454,3.6497,3.6523,3.6573,3.6634,3.6641,3.6705,3.6749,3.6824,3.6852,3.6903,3.689,3.691,3.6916,3.6921,3.6926,3.68,3.6912,3.6912,3.6912,3.6912,3.6912,0,3.6339,3.6369,3.642,3.648,3.6525,3.652,3.6567,3.6605,3.6662,3.6703,3.675,3.682,3.6876,3.691,3.6967,3.7002,3.7003,3.7016,3.7015,3.7022,3.6932,3.6916,3.7015,3.7015,3.7015,3.7015,3.7015,3.7015,3.6398,3.6471,3.6487,3.6577,3.6605,3.667,3.6698,3.6735,3.6769,3.6847,3.6895,3.6916,3.6956,3.7016,3.7068,3.7077,3.7099,3.7114,3.7122,3.7038,3.7028,3.7018,3.7003,3.7118,3.7118,3.7208,3.7209,3.721]}]]